Location: *
(45.1961°N, 1.9694°E)
Time: 17:21:33
(UTC+00:00)

Cosmos 923 Rocket - Pass Details

Date: 25 August 2019
Orbit: 758 x 786 km, 74.0° (Epoch: 22 September)

Event Time Altitude Azimuth Distance (km) Brightness Sun altitude
Rises 19:26:46 0° 338° (NNW) 3,285 8.1 -8.1°
Reaches altitude 10° 19:29:10 10° 338° (NNW) 2,350 7.3 -8.5°
Maximum altitude 19:34:31 84° 251° (WSW) 791 4.1 -9.3°
Drops below altitude 10° 19:39:48 10° 163° (SSE) 2,319 6.1 -10.2°
Enters shadow 19:41:35 - 163° (SSE) 3,011 6.7 -10.5°
